Flag for Greece Weather past 2 weeks in Patras, Greece

Now
52 °F

Passing clouds.


Feels Like: 52 °F
Forecast: 50 / 70 °F
Wind: No wind

Location: Araxos Airport

Current Time: Apr 22, 2015 at 12:33:04 AM

Latest Report: Apr 21, 2015 at 11:50 PM


Visibility: N/A

Pressure: 30.04 "Hg

Humidity: 88%

Dew point: 48 °F

Location of PatrasLocation

Historic Weather in Patras — Graph

°F

Patras temperature yesterday

Maximum temperature yesterday: 68 °F (at 5:20 PM)
Minimum temperature yesterday: 45 °F (at 6:50 AM)
Average temperature yesterday: 59 °F

Past Weeks' High & Low Weather Summary

 TemperatureHumidityPressure
High77 °F (Apr 18, 3:50 PM)100% (Apr 7, 7:50 AM)30.36 "Hg (Apr 7, 7:50 AM)
Low37 °F (Apr 11, 7:20 AM)27% (Apr 10, 6:50 PM)29.83 "Hg (Apr 6, 11:50 PM)
Average58 °F71%30.11 "Hg
* Reported Apr 6 11:50 PM — Apr 21 10:50 PM, Patras, Weather by CustomWeather, © 2015

Note: Actual official high and low records may vary slightly from our data, if they occured in-between our weather recording intervals... More about our weather records

Advertising

Patras weather history for previous 24 hours

 ConditionsComfort  
Time TempWeatherWind HumidityBarometerVisibility
10:50 PM
Tue, Apr 21
55 °FPassing clouds.No wind82%30.04 "HgN/A
9:50 PM55 °FPassing clouds.No wind82%30.01 "HgN/A
8:50 PM59 °FPassing clouds.No wind68%30.01 "HgN/A
8:20 PM59 °FPassing clouds.No wind72%29.98 "HgN/A
7:50 PM63 °FPassing clouds.3 mph56%29.98 "HgN/A
7:20 PM63 °FPassing clouds.5 mph64%29.98 "HgN/A
6:50 PM64 °FPassing clouds.5 mph60%29.98 "HgN/A
6:20 PM66 °FPassing clouds.5 mph52%29.98 "HgN/A
5:50 PM66 °FPassing clouds.6 mph56%29.98 "HgN/A
5:20 PM68 °FPassing clouds.5 mph43%29.98 "HgN/A
4:50 PM66 °FPassing clouds.7 mph46%29.98 "HgN/A
4:20 PM66 °FPassing clouds.8 mph49%29.98 "HgN/A
3:50 PM66 °FPassing clouds.9 mph52%29.98 "HgN/A
3:20 PM66 °FPassing clouds.8 mph49%29.98 "HgN/A
2:50 PM66 °FPassing clouds.8 mph49%30.01 "HgN/A
2:20 PM66 °FPassing clouds.9 mph52%30.01 "HgN/A
1:50 PM66 °FPassing clouds.9 mph49%30.01 "HgN/A
1:20 PM64 °FPassing clouds.9 mph64%30.01 "HgN/A
12:50 PM64 °FPassing clouds.6 mph68%30.01 "HgN/A
12:20 PM64 °FPassing clouds.7 mph68%30.01 "HgN/A
11:50 AM64 °FPassing clouds.6 mph68%30.01 "HgN/A
11:20 AM63 °FPassing clouds.5 mph68%29.98 "HgN/A
10:50 AM63 °FPassing clouds.3 mph73%29.98 "HgN/A
10:20 AM61 °FPassing clouds.No wind77%29.98 "HgN/A
9:50 AM61 °FPassing clouds.No wind83%29.98 "HgN/A
8:50 AM57 °FPassing clouds.No wind88%29.98 "HgN/A
8:20 AM54 °FPassing clouds.No wind88%29.98 "HgN/A
7:50 AM52 °FPassing clouds.No wind100%29.98 "HgN/A
7:20 AM46 °FPassing clouds.No wind100%29.95 "HgN/A
6:50 AM45 °FPassing clouds.No wind100%29.95 "HgN/A
6:20 AM46 °FPassing clouds.No wind100%29.95 "HgN/A
5:50 AM48 °FPassing clouds.No wind100%29.95 "HgN/A
4:50 AM48 °FPassing clouds.No wind94%29.95 "HgN/A
3:50 AM50 °FPassing clouds.No wind100%29.95 "HgN/A
2:50 AM52 °FPassing clouds.No wind94%29.95 "HgN/A
1:50 AM55 °FPassing clouds.No wind88%29.98 "HgN/A
12:50 AM57 °FPassing clouds.3 mph82%29.98 "HgN/A
Weather by CustomWeather, © 2015

See weather overviewHow to use our weather pages